• In Uzbekistan
  • List of Countries
  • For 7 days
  • Water Temperature
  • Satellite Maps
  • Weather Map
  • Weather Widgets
  • user-avatar
    Login

    Hourly Weather Thessaloniki

    Today, 16 December, Saturday

    Time Temperature Precipitation Wind Pressure Humidity
    00:00 +12°C° 0 mm 2 mps 754 mmHg 82%
    01:00 +12°C° 0 mm 2 mps 754 mmHg 83%
    02:00 +12°C° 0 mm 2 mps 753 mmHg 84%
    03:00 +12°C° 0 mm 2 mps 753 mmHg 85%
    04:00 +11°C° 0 mm 3 mps 753 mmHg 85%
    05:00 +11°C° 0 mm 3 mps 753 mmHg 86%
    06:00 +11°C° 0 mm 3 mps 753 mmHg 86%
    07:00 +11°C° 0 mm 3 mps 752 mmHg 87%
    08:00 +11°C° 0 mm 3 mps 752 mmHg 88%
    09:00 +12°C° 0 mm 3 mps 752 mmHg 83%
    10:00 +14°C° 0 mm 4 mps 752 mmHg 77%
    11:00 +15°C° 0 mm 4 mps 752 mmHg 72%
    12:00 +17°C° 0 mm 4 mps 752 mmHg 70%
    13:00 +17°C° 0 mm 4 mps 752 mmHg 68%
    14:00 +18°C° 0 mm 3 mps 751 mmHg 66%
    15:00 +17°C° 0.4 mm 3 mps 751 mmHg 71%
    16:00 +15°C° 0.4 mm 4 mps 751 mmHg 77%
    17:00 +14°C° 0.4 mm 4 mps 751 mmHg 82%
    18:00 +14°C° 1 mm 3 mps 751 mmHg 84%
    19:00 +15°C° 1 mm 2 mps 751 mmHg 87%
    20:00 +14°C° 1 mm 2 mps 751 mmHg 90%
    21:00 +14°C° 0.2 mm 2 mps 751 mmHg 90%
    22:00 +14°C° 0.2 mm 2 mps 751 mmHg 91%
    23:00 +13°C° 0.2 mm 2 mps 751 mmHg 91%

    Tomorrow, 17 December, Sunday

    Time Temperature Precipitation Wind Pressure Humidity
    00:00 +13°C° 0 mm 2 mps 751 mmHg 91%
    01:00 +13°C° 0 mm 2 mps 752 mmHg 91%
    02:00 +12°C° 0 mm 1 mps 752 mmHg 91%
    03:00 +12°C° 0 mm 1 mps 752 mmHg 91%
    04:00 +12°C° 0 mm 1 mps 751 mmHg 91%
    05:00 +12°C° 0 mm 1 mps 751 mmHg 92%
    06:00 +12°C° 0.1 mm 2 mps 752 mmHg 92%
    07:00 +12°C° 0.1 mm 2 mps 752 mmHg 92%
    08:00 +12°C° 0.1 mm 2 mps 752 mmHg 92%
    09:00 +13°C° 0.1 mm 2 mps 752 mmHg 84%
    10:00 +13°C° 0.1 mm 3 mps 753 mmHg 76%
    11:00 +14°C° 0.1 mm 3 mps 753 mmHg 69%
    12:00 +14°C° 0.1 mm 3 mps 753 mmHg 63%
    13:00 +14°C° 0.1 mm 3 mps 753 mmHg 58%
    14:00 +15°C° 0.1 mm 4 mps 753 mmHg 52%
    15:00 +14°C° 0 mm 3 mps 753 mmHg 54%
    16:00 +13°C° 0 mm 3 mps 754 mmHg 57%
    17:00 +12°C° 0 mm 3 mps 754 mmHg 59%
    18:00 +11°C° 0 mm 3 mps 755 mmHg 61%
    19:00 +11°C° 0 mm 3 mps 755 mmHg 62%
    20:00 +10°C° 0 mm 3 mps 756 mmHg 63%
    21:00 +9°C° 0 mm 3 mps 757 mmHg 64%
    22:00 +9°C° 0 mm 3 mps 758 mmHg 66%
    23:00 +7°C° 0 mm 4 mps 758 mmHg 67%

    Day after tomorrow, 18 December, Monday

    Time Temperature Precipitation Wind Pressure Humidity
    00:00 +7°C° 0 mm 4 mps 758 mmHg 68%
    01:00 +6°C° 0 mm 4 mps 759 mmHg 69%
    02:00 +6°C° 0 mm 4 mps 759 mmHg 70%
    03:00 +5°C° 0 mm 3 mps 759 mmHg 71%
    04:00 +5°C° 0 mm 3 mps 759 mmHg 72%
    05:00 +5°C° 0 mm 3 mps 759 mmHg 73%
    06:00 +4°C° 0 mm 3 mps 760 mmHg 73%
    07:00 +4°C° 0 mm 3 mps 760 mmHg 73%
    08:00 +4°C° 0 mm 3 mps 760 mmHg 74%
    09:00 +5°C° 0.1 mm 3 mps 761 mmHg 69%
    10:00 +7°C° 0.1 mm 3 mps 761 mmHg 65%
    11:00 +7°C° 0.1 mm 4 mps 761 mmHg 60%
    12:00 +7°C° 0.1 mm 4 mps 761 mmHg 59%
    13:00 +7°C° 0.1 mm 4 mps 760 mmHg 58%
    14:00 +7°C° 0.1 mm 4 mps 760 mmHg 57%
    15:00 +7°C° 0 mm 4 mps 760 mmHg 59%
    16:00 +6°C° 0 mm 4 mps 760 mmHg 61%
    17:00 +5°C° 0 mm 4 mps 760 mmHg 63%
    18:00 +5°C° 0 mm 4 mps 760 mmHg 64%
    19:00 +4°C° 0 mm 4 mps 761 mmHg 64%
    20:00 +4°C° 0 mm 3 mps 761 mmHg 65%
    21:00 +3°C° 0 mm 4 mps 762 mmHg 65%
    22:00 +3°C° 0 mm 4 mps 762 mmHg 65%
    23:00 +3°C° 0 mm 4 mps 763 mmHg 65%

    19 December, Tuesday

    Time Temperature Precipitation Wind Pressure Humidity
    00:00 +1°C° 0 mm 4 mps 763 mmHg 64%
    01:00 +1°C° 0 mm 4 mps 763 mmHg 64%
    02:00 +1°C° 0 mm 4 mps 764 mmHg 63%
    03:00 0°C° 0 mm 4 mps 764 mmHg 62%
    04:00 0°C° 0 mm 4 mps 764 mmHg 61%
    05:00 0°C° 0 mm 4 mps 765 mmHg 60%
    06:00 0°C° 0 mm 4 mps 765 mmHg 59%
    07:00 0°C° 0 mm 4 mps 766 mmHg 58%
    08:00 -1°C° 0 mm 4 mps 766 mmHg 57%
    09:00 +1°C° 0 mm 4 mps 767 mmHg 52%
    10:00 +3°C° 0 mm 4 mps 767 mmHg 47%
    11:00 +3°C° 0 mm 5 mps 767 mmHg 42%
    12:00 +3°C° 0 mm 5 mps 767 mmHg 41%
    13:00 +5°C° 0 mm 5 mps 767 mmHg 40%
    14:00 +5°C° 0 mm 5 mps 766 mmHg 39%
    15:00 +5°C° 0 mm 5 mps 767 mmHg 42%
    16:00 +4°C° 0 mm 4 mps 767 mmHg 46%
    17:00 +3°C° 0 mm 4 mps 767 mmHg 49%
    18:00 +3°C° 0 mm 4 mps 768 mmHg 52%
    19:00 +1°C° 0 mm 4 mps 768 mmHg 54%
    20:00 +1°C° 0 mm 4 mps 769 mmHg 56%
    21:00 +1°C° 0 mm 3 mps 769 mmHg 57%
    22:00 +1°C° 0 mm 3 mps 770 mmHg 58%
    23:00 +1°C° 0 mm 3 mps 770 mmHg 59%

    20 December, Wednesday

    Time Temperature Precipitation Wind Pressure Humidity
    00:00 +1°C° 0 mm 3 mps 770 mmHg 60%
    01:00 0°C° 0 mm 3 mps 770 mmHg 61%
    02:00 0°C° 0 mm 3 mps 770 mmHg 62%
    03:00 0°C° 0 mm 3 mps 770 mmHg 62%
    04:00 +1°C° 0 mm 2 mps 770 mmHg 63%
    05:00 +1°C° 0 mm 2 mps 770 mmHg 64%
    06:00 +1°C° 0 mm 2 mps 770 mmHg 64%
    07:00 +1°C° 0 mm 2 mps 770 mmHg 64%
    08:00 -1°C° 0 mm 2 mps 770 mmHg 65%
    09:00 +2°C° 0 mm 2 mps 770 mmHg 60%
    10:00 +3°C° 0 mm 2 mps 770 mmHg 55%
    11:00 +4°C° 0 mm 2 mps 770 mmHg 49%
    12:00 +4°C° 0 mm 2 mps 769 mmHg 48%
    13:00 +5°C° 0 mm 2 mps 769 mmHg 46%
    14:00 +5°C° 0 mm 2 mps 768 mmHg 45%
    15:00 +6°C° 0 mm 1 mps 768 mmHg 47%
    16:00 +5°C° 0 mm 1 mps 768 mmHg 50%
    17:00 +5°C° 0 mm 1 mps 769 mmHg 53%
    18:00 +4°C° 0 mm 1 mps 769 mmHg 54%
    19:00 +3°C° 0 mm 2 mps 769 mmHg 56%
    20:00 +3°C° 0 mm 2 mps 769 mmHg 57%
    21:00 +2°C° 0 mm 2 mps 770 mmHg 58%
    22:00 +2°C° 0 mm 2 mps 770 mmHg 60%
    23:00 +2°C° 0 mm 2 mps 770 mmHg 61%

    21 December, Thursday

    Time Temperature Precipitation Wind Pressure Humidity
    00:00 +2°C° 0 mm 2 mps 770 mmHg 61%
    01:00 +1°C° 0 mm 2 mps 770 mmHg 61%
    02:00 0°C° 0 mm 3 mps 770 mmHg 61%
    03:00 +1°C° 0 mm 2 mps 770 mmHg 60%
    04:00 +1°C° 0 mm 2 mps 770 mmHg 60%
    05:00 +1°C° 0 mm 2 mps 770 mmHg 59%
    06:00 -1°C° 0 mm 2 mps 770 mmHg 59%
    07:00 -1°C° 0 mm 2 mps 770 mmHg 58%
    08:00 -1°C° 0 mm 2 mps 770 mmHg 57%
    09:00 +1°C° 0 mm 3 mps 770 mmHg 52%
    10:00 +2°C° 0 mm 3 mps 770 mmHg 47%
    11:00 +3°C° 0 mm 3 mps 770 mmHg 42%
    12:00 +4°C° 0 mm 3 mps 769 mmHg 41%
    13:00 +5°C° 0 mm 3 mps 769 mmHg 40%
    14:00 +5°C° 0 mm 3 mps 768 mmHg 39%
    15:00 +4°C° 0 mm 3 mps 769 mmHg 42%
    16:00 +4°C° 0 mm 3 mps 769 mmHg 46%
    17:00 +4°C° 0 mm 2 mps 769 mmHg 49%
    18:00 +4°C° 0 mm 2 mps 769 mmHg 51%
    19:00 +3°C° 0 mm 2 mps 769 mmHg 53%
    20:00 +3°C° 0 mm 2 mps 769 mmHg 55%
    21:00 +3°C° 0 mm 2 mps 769 mmHg 56%
    22:00 +3°C° 0 mm 2 mps 769 mmHg 57%
    23:00 +3°C° 0 mm 2 mps 769 mmHg 58%
    Show more

    XHprof extension not loaded